FW9783 Weather Reports


time (UTC)temp
C
wind
direction
speed
KPH
gust
KPH
rain 1hr
cm
rain 24hr
cm
rain mn
cm
humidity
%
barometer
mb
20260510130932 13 2 0.0 3.2 0.00 0.00 0.00 80 1025.4
20260510130804 13 41 3.2 40.2 0.00 0.00 0.00 80 1019.9
20260510130429 13 356 3.2 40.2 0.00 0.00 0.00 80 1025.0
20260510130304 13 83 3.2 24.1 0.00 0.00 0.00 80 1019.7
20260510125926 13 251 0.0 12.9 0.00 0.00 0.00 80 1025.0
20260510125804 13 54 1.6 32.2 0.00 0.00 0.00 80 1019.7
20260510125422 13 66 1.6 14.5 0.00 0.00 0.00 80 1024.7
20260510125306 13 56 0.0 32.2 0.00 0.00 0.00 80 1019.3
20260510124919 13 38 3.2 16.1 0.00 0.00 0.00 80 1024.7
20260510124415 13 59 4.8 12.9 0.00 0.00 0.00 79 1024.4
20260510123912 14 10 0.0 22.5 0.00 0.00 0.00 79 1024.3
20260510123804 14 44 0.0 27.4 0.00 0.00 0.00 79 1019.0
20260510123407 14 57 0.0 27.4 0.00 0.00 0.00 79 1023.7
20260510123304 14 71 3.2 25.7 0.00 0.00 0.00 79 1018.6
20260510122904 14 58 0.0 12.9 0.00 0.00 0.00 79 1023.7
20260510122803 14 75 0.0 25.7 0.00 0.00 0.00 80 1018.4
20260510122359 15 342 3.2 25.7 0.00 0.00 0.00 80 1023.6
20260510122306 15 55 8.0 25.7 0.00 0.00 0.00 80 1018.4
20260510121856 15 82 0.0 16.1 0.00 0.00 0.00 80 1023.5
20260510121804 15 50 3.2 29.0 0.00 0.00 0.00 80 1018.4
20260510121354 15 100 8.0 16.1 0.00 0.00 0.00 80 1023.3
20260510120851 15 60 0.0 14.5 0.00 0.00 0.00 80 1023.2
20260510120804 15 71 1.6 14.5 0.00 0.00 0.00 80 1018.1
20260510120348 15 58 0.0 3.2 0.00 0.00 0.00 80 1023.1
20260510115848 15 81 0.0 0.0 0.00 0.00 0.00 80 1022.8
20260510115803 15 78 0.0 19.3 0.00 0.00 0.00 80 1018.0
20260510115346 15 33 0.0 17.7 0.00 0.00 0.00 79 1022.8
20260510115306 15 49 1.6 19.3 0.00 0.00 0.00 79 1017.8
20260510114842 15 63 0.0 3.2 0.00 0.00 0.00 79 1022.8
20260510114339 15 88 0.0 17.7 0.00 0.00 0.00 78 1022.8
20260510114303 15 46 1.6 19.3 0.00 0.00 0.00 78 1017.8
20260510113839 15 77 0.0 3.2 0.00 0.00 0.00 78 1022.6
20260510113804 15 56 0.0 4.8 0.00 0.00 0.00 78 1017.5
20260510113336 15 89 0.0 0.0 0.00 0.00 0.00 77 1022.7
20260510112833 16 45 1.6 4.8 0.00 0.00 0.00 77 1023.0
20260510112804 16 74 0.0 9.7 0.00 0.00 0.00 77 1017.9
20260510112330 16 63 0.0 1.6 0.00 0.00 0.00 77 1022.6
20260510112306 16 77 0.0 9.7 0.00 0.00 0.00 76 1017.7
20260510111825 16 54 0.0 8.0 0.00 0.00 0.00 76 1022.6
20260510111804 16 65 0.0 16.1 0.00 0.00 0.00 76 1017.4
20260510111323 16 62 0.0 0.0 0.00 0.00 0.00 76 1022.3
20260510110822 16 83 0.0 4.8 0.00 0.00 0.00 75 1022.1
20260510110804 16 83 1.6 9.7 0.00 0.00 0.00 75 1017.3
20260510110320 16 83 0.0 9.7 0.00 0.00 0.00 75 1021.8
20260510110304 16 96 0.0 14.5 0.00 0.00 0.00 75 1016.9
20260510105815 16 76 1.6 8.0 0.00 0.00 0.00 75 1021.9
20260510105803 16 49 0.0 14.5 0.00 0.00 0.00 75 1016.8
20260510105310 16 134 0.0 8.0 0.00 0.00 0.00 76 1021.7
20260510104807 16 27 1.6 8.0 0.00 0.00 0.00 76 1021.7
20260510104804 16 33 1.6 8.0 0.00 0.00 0.00 76 1016.8
20260510104304 16 41 0.0 4.8 0.00 0.00 0.00 76 1021.4
20260510103804 16 127 0.0 40.2 0.00 0.00 0.00 76 1016.6
20260510103800 16 104 0.0 0.0 0.00 0.00 0.00 76 1021.5
20260510103304 16 61 0.0 19.3 0.00 0.00 0.00 76 1016.7
20260510103257 16 48 0.0 0.0 0.00 0.00 0.00 76 1021.6
20260510102804 16 89 3.2 19.3 0.00 0.00 0.00 76 1016.7
20260510102752 16 69 4.8 17.7 0.00 0.00 0.00 76 1021.6
20260510102306 16 106 0.0 9.7 0.00 0.00 0.00 76 1016.6
20260510102248 16 120 0.0 0.0 0.00 0.00 0.00 76 1021.5
20260510101804 16 106 0.0 9.7 0.00 0.00 0.00 76 1016.6
20260510101745 16 103 0.0 0.0 0.00 0.00 0.00 76 1021.5
20260510101304 16 123 0.0 9.7 0.00 0.00 0.00 75 1017.0
20260510101244 16 148 0.0 1.6 0.00 0.00 0.00 75 1021.9
20260510100804 16 65 0.0 11.3 0.00 0.00 0.00 75 1016.6
20260510100739 16 70 0.0 4.8 0.00 0.00 0.00 75 1021.5
20260510100304 16 8 0.0 22.5 0.00 0.00 0.00 75 1016.7
20260510100238 16 74 0.0 9.7 0.00 0.00 0.00 75 1021.6
20260510095804 16 92 1.6 22.5 0.00 0.00 0.00 76 1016.2
20260510095732 16 59 1.6 11.3 0.00 0.00 0.00 76 1020.9
20260510095306 16 87 1.6 22.5 0.00 0.00 0.00 76 1016.2
20260510095228 16 88 0.0 0.0 0.00 0.00 0.00 76 1020.9
20260510094804 16 83 0.0 20.9 0.00 0.00 0.00 76 1016.6
20260510094727 16 94 0.0 20.9 0.00 0.00 0.00 76 1021.4
20260510094304 16 102 0.0 14.5 0.00 0.00 0.00 76 1016.4
20260510094223 16 107 0.0 14.5 0.00 0.00 0.00 76 1021.3
20260510093804 16 78 0.0 12.9 0.00 0.00 0.00 76 1016.1
20260510093719 16 72 0.0 12.9 0.00 0.00 0.00 76 1021.1
20260510093304 16 147 0.0 11.3 0.00 0.00 0.00 75 1016.2
20260510093216 16 168 0.0 1.6 0.00 0.00 0.00 75 1021.1
20260510092804 16 107 0.0 9.7 0.00 0.00 0.00 75 1015.9
20260510092712 16 94 0.0 4.8 0.00 0.00 0.00 75 1020.7
20260510092306 16 106 0.0 20.9 0.00 0.00 0.00 75 1015.7
20260510092208 16 106 0.0 1.6 0.00 0.00 0.00 75 1020.4
20260510091804 16 93 0.0 20.9 0.00 0.00 0.00 75 1015.4
20260510091704 16 111 0.0 9.7 0.00 0.00 0.00 75 1020.2
20260510091304 16 205 1.6 20.9 0.00 0.00 0.00 75 1015.1
20260510091200 16 109 0.0 3.2 0.00 0.00 0.00 75 1019.5
20260510090804 16 75 3.2 16.1 0.00 0.00 0.00 74 1015.0
20260510090657 16 72 6.4 14.5 0.00 0.00 0.00 74 1019.6
20260510090303 16 125 3.2 22.5 0.00 0.00 0.00 74 1015.1
20260510090154 16 164 4.8 14.5 0.00 0.00 0.00 74 1019.8
20260510085649 16 178 6.4 14.5 0.00 0.00 0.00 74 1020.1
20260510085306 16 129 1.6 29.0 0.00 0.00 0.00 73 1015.2
20260510085144 16 136 0.0 3.2 0.00 0.00 0.00 73 1019.7
20260510084803 16 142 0.0 29.0 0.00 0.00 0.00 73 1015.0
20260510084641 16 145 0.0 12.9 0.00 0.00 0.00 73 1019.8
20260510084303 16 100 1.6 27.4 0.00 0.00 0.00 73 1015.1
20260510084138 16 175 0.0 22.5 0.00 0.00 0.00 73 1019.8
20260510083804 16 102 4.8 37.0 0.00 0.00 0.00 72 1014.9
20260510083634 16 110 8.0 25.7 0.00 0.00 0.00 72 1019.6
20260510083304 17 121 3.2 37.0 0.00 0.00 0.00 72 1015.2
20260510083131 17 134 1.6 22.5 0.00 0.00 0.00 72 1019.8
20260510082804 17 102 1.6 37.0 0.00 0.00 0.00 72 1014.9
20260510082627 17 131 0.0 37.0 0.00 0.00 0.00 71 1019.6
20260510082306 17 124 1.6 37.0 0.00 0.00 0.00 71 1014.8
20260510082123 17 151 0.0 12.9 0.00 0.00 0.00 71 1019.5
20260510081804 17 90 4.8 37.0 0.00 0.00 0.00 71 1015.0
20260510081623 17 83 9.7 37.0 0.00 0.00 0.00 71 1019.6
20260510081120 17 120 0.0 4.8 0.00 0.00 0.00 70 1019.7
20260510080804 17 64 1.6 38.6 0.00 0.00 0.00 70 1014.9
20260510080619 17 103 0.0 14.5 0.00 0.00 0.00 70 1019.4
20260510080116 18 134 11.3 35.4 0.00 0.00 0.00 69 1019.3
20260510075804 18 93 0.0 24.1 0.00 0.00 0.00 69 1014.5
20260510075614 18 232 0.0 4.8 0.00 0.00 0.00 70 1019.2
20260510075306 18 178 3.2 20.9 0.00 0.00 0.00 70 1014.3
20260510075110 18 105 0.0 17.7 0.00 0.00 0.00 70 1018.8
20260510074607 18 120 0.0 4.8 0.00 0.00 0.00 69 1018.6
20260510074103 18 165 0.0 3.2 0.00 0.00 0.00 69 1018.4
20260510073804 18 78 3.2 27.4 0.00 0.00 0.00 68 1013.7
20260510073559 18 170 8.0 27.4 0.00 0.00 0.00 68 1018.4
20260510073304 19 152 0.0 16.1 0.00 0.00 0.00 68 1013.6
20260510073056 19 111 0.0 16.1 0.00 0.00 0.00 68 1018.3
20260510072804 19 63 1.6 11.3 0.00 0.00 0.00 68 1013.9
20260510072553 19 110 1.6 11.3 0.00 0.00 0.00 68 1018.6
20260510072306 19 98 0.0 19.3 0.00 0.00 0.00 68 1013.9
20260510072048 19 32 0.0 4.8 0.00 0.00 0.00 68 1018.5
20260510071803 19 134 0.0 19.3 0.00 0.00 0.00 68 1013.8
20260510071545 19 84 0.0 3.2 0.00 0.00 0.00 68 1018.2
20260510071304 19 149 0.0 4.8 0.00 0.00 0.00 68 1013.8
20260510071043 19 54 0.0 3.2 0.00 0.00 0.00 68 1018.4
20260510070804 19 114 0.0 9.7 0.00 0.00 0.00 68 1014.1
20260510070540 19 124 0.0 0.0 0.00 0.00 0.00 68 1018.4
20260510070304 19 112 0.0 9.7 0.00 0.00 0.00 68 1013.9
20260510070037 20 181 0.0 0.0 0.00 0.00 0.00 68 1018.3
20260510065533 20 68 1.6 9.7 0.00 0.00 0.00 67 1018.8
20260510065306 20 65 0.0 8.0 0.00 0.00 0.00 67 1014.2
20260510065029 20 103 0.0 0.0 0.00 0.00 0.00 67 1018.9
20260510064804 20 145 0.0 8.0 0.00 0.00 0.00 67 1014.4
20260510064526 20 83 0.0 1.6 0.00 0.00 0.00 67 1019.0
20260510064304 20 51 0.0 8.0 0.00 0.00 0.00 66 1014.8
20260510064022 20 83 0.0 8.0 0.00 0.00 0.00 66 1019.4
20260510063804 20 90 0.0 33.8 0.00 0.00 0.00 66 1014.6
20260510063519 20 105 0.0 1.6 0.00 0.00 0.00 66 1019.4
20260510063304 20 91 0.0 33.8 0.00 0.00 0.00 66 1014.7
20260510063017 20 6 0.0 4.8 0.00 0.00 0.00 66 1019.7
20260510062804 20 86 4.8 38.6 0.00 0.00 0.00 66 1014.7
20260510062512 20 16 0.0 1.6 0.00 0.00 0.00 66 1019.2
20260510062307 20 66 0.0 38.6 0.00 0.00 0.00 66 1014.5
20260510062007 20 77 4.8 38.6 0.00 0.00 0.00 66 1019.2
20260510061804 20 72 0.0 27.4 0.00 0.00 0.00 66 1014.4
20260510061505 20 226 0.0 0.0 0.00 0.00 0.00 66 1018.9
20260510061001 20 77 0.0 1.6 0.00 0.00 0.00 65 1019.2
20260510060804 20 62 0.0 20.9 0.00 0.00 0.00 65 1014.4
20260510060458 21 107 0.0 0.0 0.00 0.00 0.00 64 1019.0
20260510060304 21 150 1.6 16.1 0.00 0.00 0.00 64 1014.5
20260510055954 21 106 0.0 0.0 0.00 0.00 0.00 64 1019.4
20260510055804 21 195 1.6 19.3 0.00 0.00 0.00 64 1014.4
20260510055450 21 128 0.0 1.6 0.00 0.00 0.00 63 1019.0
20260510054948 21 107 0.0 0.0 0.00 0.00 0.00 63 1019.0
20260510054804 21 210 0.0 19.3 0.00 0.00 0.00 63 1014.1
20260510054443 21 37 0.0 3.2 0.00 0.00 0.00 62 1018.8
20260510054304 21 104 0.0 12.9 0.00 0.00 0.00 62 1014.2
20260510053938 21 94 3.2 12.9 0.00 0.00 0.00 61 1018.6
20260510053804 21 39 0.0 9.7 0.00 0.00 0.00 61 1013.9
20260510053434 21 18 1.6 3.2 0.00 0.00 0.00 61 1018.5
20260510053304 21 55 0.0 9.7 0.00 0.00 0.00 61 1013.9
20260510052930 22 103 0.0 0.0 0.00 0.00 0.00 61 1018.6
20260510052804 22 233 0.0 9.7 0.00 0.00 0.00 60 1014.1
20260510052426 22 95 0.0 1.6 0.00 0.00 0.00 60 1018.6
20260510051922 22 38 0.0 1.6 0.00 0.00 0.00 60 1018.9
20260510051419 22 231 0.0 0.0 0.00 0.00 0.00 59 1018.7
20260510051304 22 76 0.0 3.2 0.00 0.00 0.00 59 1014.2
20260510050915 22 195 0.0 3.2 0.00 0.00 0.00 58 1018.6
20260510050804 22 125 0.0 1.6 0.00 0.00 0.00 58 1014.1
20260510050412 22 153 0.0 0.0 0.00 0.00 0.00 57 1018.4
20260510050303 22 106 0.0 1.6 0.00 0.00 0.00 57 1014.0
20260510045910 22 134 0.0 0.0 0.00 0.00 0.00 57 1018.5
20260510045804 22 82 0.0 1.6 0.00 0.00 0.00 57 1014.0
20260510045407 22 80 0.0 0.0 0.00 0.00 0.00 57 1018.4
20260510045306 22 79 0.0 0.0 0.00 0.00 0.00 56 1013.7
20260510044903 22 73 0.0 0.0 0.00 0.00 0.00 55 1018.3
20260510044400 22 89 0.0 0.0 0.00 0.00 0.00 54 1018.4
20260510044304 22 163 0.0 0.0 0.00 0.00 0.00 53 1013.8
20260510043857 22 186 0.0 0.0 0.00 0.00 0.00 53 1018.4
20260510043804 22 146 0.0 0.0 0.00 0.00 0.00 53 1013.7
20260510043352 22 201 0.0 0.0 0.00 0.00 0.00 52 1018.3
20260510043304 22 167 0.0 0.0 0.00 0.00 0.00 52 1013.5
20260510042851 23 151 0.0 0.0 0.00 0.00 0.00 51 1018.2
20260510042804 23 110 0.0 0.0 0.00 0.00 0.00 51 1013.4
20260510042346 23 194 0.0 0.0 0.00 0.00 0.00 50 1018.0
20260510042306 23 157 0.0 0.0 0.00 0.00 0.00 50 1013.3
20260510041843 23 135 0.0 0.0 0.00 0.00 0.00 49 1017.8
20260510041804 23 183 0.0 0.0 0.00 0.00 0.00 49 1013.4
20260510041340 23 185 0.0 0.0 0.00 0.00 0.00 47 1017.8
20260510041303 23 185 0.0 0.0 0.00 0.00 0.00 47 1013.5
20260510040837 23 209 0.0 0.0 0.00 0.00 0.00 46 1018.2
20260510040804 23 204 0.0 3.2 0.00 0.00 0.00 46 1013.4
20260510040334 23 212 0.0 0.0 0.00 0.00 0.00 45 1017.9
20260510040304 23 195 0.0 3.2 0.00 0.00 0.00 44 1013.4
20260510035829 23 113 0.0 0.0 0.00 0.00 0.00 43 1017.8
20260510035326 24 141 0.0 0.0 0.00 0.00 0.00 39 1017.7
20260510035306 24 129 0.0 25.7 0.00 0.00 0.00 39 1013.2
20260510034821 25 117 1.6 4.8 0.00 0.00 0.00 34 1017.6
20260510034804 25 133 0.0 25.7 0.00 0.00 0.00 33 1013.1
20260510034320 25 123 8.0 25.7 0.00 0.00 0.00 28 1017.4
20260510033816 25 110 0.0 0.0 0.00 0.00 0.00 24 1017.5
20260510033804 26 98 0.0 8.0 0.00 0.00 0.00 23 1012.9
20260510033313 26 154 0.0 0.0 0.00 0.00 0.00 22 1017.4
20260510033304 26 85 0.0 8.0 0.00 0.00 0.00 22 1012.8
20260510032809 26 71 0.0 4.8 0.00 0.00 0.00 22 1017.1
20260510032306 26 97 0.0 0.0 0.00 0.00 0.00 21 1012.8
20260510031804 26 110 0.0 0.0 0.00 0.00 0.00 20 1012.6
20260510031801 26 105 0.0 0.0 0.00 0.00 0.00 20 1017.1
20260510031304 26 181 0.0 0.0 0.00 0.00 0.00 19 1012.8
20260510031257 26 199 0.0 0.0 0.00 0.00 0.00 19 1017.4
20260510030803 26 188 0.0 0.0 0.00 0.00 0.00 19 1012.5
20260510030756 26 185 0.0 0.0 0.00 0.00 0.00 19 1016.9
20260510030303 27 185 0.0 14.5 0.00 0.00 0.00 18 1012.4
20260510030254 27 196 0.0 0.0 0.00 0.00 0.00 18 1016.8
20260510025804 27 165 0.0 19.3 0.00 0.00 0.00 17 1012.3
20260510025751 27 176 0.0 0.0 0.00 0.00 0.00 17 1016.7
20260510025306 27 203 0.0 19.3 0.00 0.00 0.00 17 1012.2
20260510025249 27 212 0.0 0.0 0.00 0.00 0.00 17 1016.6
20260510024804 26 143 0.0 0.0 0.00 0.00 0.00 19 1012.2
20260510024745 26 144 0.0 0.0 0.00 0.00 0.00 19 1016.5
20260510024304 26 201 0.0 0.0 0.00 0.00 0.00 19 1011.8
20260510024242 26 200 0.0 0.0 0.00 0.00 0.00 19 1016.0
20260510023803 27 197 0.0 0.0 0.00 0.00 0.00 18 1011.7
20260510023738 27 195 0.0 0.0 0.00 0.00 0.00 18 1016.1
20260510023303 26 85 0.0 0.0 0.00 0.00 0.00 18 1011.6
20260510023235 26 97 0.0 0.0 0.00 0.00 0.00 18 1016.0
20260510022732 26 132 0.0 0.0 0.00 0.00 0.00 19 1015.7
20260510022231 25 184 0.0 0.0 0.00 0.00 0.00 21 1015.9
20260510021804 25 178 0.0 0.0 0.00 0.00 0.00 21 1011.3
20260510021726 25 181 0.0 0.0 0.00 0.00 0.00 21 1015.6
20260510021304 25 201 0.0 0.0 0.00 0.00 0.00 21 1010.8
20260510021224 25 200 0.0 0.0 0.00 0.00 0.00 21 1015.0
20260510020803 26 194 0.0 0.0 0.00 0.00 0.00 20 1010.9
20260510020719 26 197 0.0 0.0 0.00 0.00 0.00 20 1015.1
20260510020303 26 199 0.0 0.0 0.00 0.00 0.00 19 1010.6
20260510020220 26 200 0.0 0.0 0.00 0.00 0.00 19 1014.8
20260510015804 26 198 0.0 0.0 0.00 0.00 0.00 19 1010.6
20260510015716 26 201 0.0 0.0 0.00 0.00 0.00 19 1014.8
20260510015306 26 193 0.0 0.0 0.00 0.00 0.00 18 1010.7
20260510015212 26 191 0.0 0.0 0.00 0.00 0.00 18 1014.9
20260510014804 27 197 0.0 0.0 0.00 0.00 0.00 18 1010.3
20260510014707 27 188 0.0 0.0 0.00 0.00 0.00 19 1014.6
20260510014304 27 194 0.0 0.0 0.00 0.00 0.00 18 1010.5
20260510014205 27 189 0.0 0.0 0.00 0.00 0.00 18 1014.5
20260510013700 27 192 0.0 0.0 0.00 0.00 0.00 17 1014.6
20260510013304 28 200 0.0 0.0 0.00 0.00 0.00 17 1010.4
20260510013156 28 208 0.0 0.0 0.00 0.00 0.00 17 1014.6
20260510012804 28 192 0.0 0.0 0.00 0.00 0.00 16 1010.1
20260510012655 28 196 0.0 0.0 0.00 0.00 0.00 16 1014.4
20260510012306 28 171 0.0 0.0 0.00 0.00 0.00 16 1010.2
20260510012151 28 115 0.0 0.0 0.00 0.00 0.00 16 1014.1
20260510011804 28 119 0.0 0.0 0.00 0.00 0.00 16 1010.1
20260510011646 28 186 0.0 0.0 0.00 0.00 0.00 16 1014.4
20260510011303 29 199 0.0 0.0 0.00 0.00 0.00 17 1010.0
20260510011142 29 196 0.0 0.0 0.00 0.00 0.00 16 1014.1
20260510010803 29 176 0.0 0.0 0.00 0.00 0.00 15 1010.1
20260510010638 29 222 0.0 0.0 0.00 0.00 0.00 16 1014.2
20260510010304 30 189 0.0 0.0 0.00 0.00 0.00 16 1010.2
20260510010136 30 197 0.0 0.0 0.00 0.00 0.00 15 1014.1
20260510005803 30 120 0.0 0.0 0.00 0.00 0.00 15 1010.0
20260510005631 30 104 0.0 0.0 0.00 0.00 0.00 15 1014.0
20260510005306 30 42 0.0 0.0 0.00 0.00 0.00 15 1009.9
20260510005129 30 51 0.0 0.0 0.00 0.00 0.00 15 1014.0
20260510004804 30 177 0.0 0.0 0.00 0.00 0.00 14 1010.0
20260510004627 30 75 0.0 0.0 0.00 0.00 0.00 14 1014.1
20260510004304 30 135 0.0 3.2 0.00 0.00 0.00 14 1009.8
20260510004125 30 195 0.0 0.0 0.00 0.00 0.00 14 1014.1
20260510003803 30 172 0.0 3.2 0.00 0.00 0.00 13 1009.9
20260510003621 30 90 0.0 0.0 0.00 0.00 0.00 14 1013.9
20260510003304 31 185 0.0 0.0 0.00 0.00 0.00 14 1009.9
20260510003117 31 212 0.0 0.0 0.00 0.00 0.00 13 1014.0
20260510002804 31 102 0.0 0.0 0.00 0.00 0.00 14 1010.0
20260510002612 31 136 0.0 0.0 0.00 0.00 0.00 14 1014.2
20260510002306 31 130 0.0 0.0 0.00 0.00 0.00 13 1010.2
20260510002109 31 289 0.0 0.0 0.00 0.00 0.00 13 1014.1
20260510001804 31 86 0.0 0.0 0.00 0.00 0.00 13 1010.3
20260510001606 31 96 0.0 0.0 0.00 0.00 0.00 13 1014.4
20260510001304 32 203 0.0 0.0 0.00 0.00 0.00 13 1010.1
20260510001105 32 87 0.0 0.0 0.00 0.00 0.00 12 1014.2
20260510000804 33 171 0.0 0.0 0.00 0.00 0.00 12 1010.3
20260510000605 33 214 0.0 0.0 0.00 0.00 0.00 12 1014.1
20260510000305 33 210 0.0 0.0 0.00 0.00 0.00 12 1010.1
20260509235804 33 222 0.0 0.0 0.00 0.00 0.00 11 1010.2
20260509235558 33 227 0.0 0.0 0.00 0.00 0.00 12 1014.4
20260509235306 33 219 0.0 0.0 0.00 0.00 0.00 11 1010.3
20260509235055 32 228 0.0 0.0 0.00 0.00 0.00 12 1014.7
20260509234803 32 191 0.0 0.0 0.00 0.00 0.00 12 1010.3
20260509234551 32 202 0.0 0.0 0.00 0.00 0.00 12 1014.4
20260509234049 32 207 0.0 0.0 0.00 0.00 0.00 13 1014.5
20260509233804 32 215 0.0 4.8 0.00 0.00 0.00 12 1010.2
20260509233547 32 229 0.0 4.8 0.00 0.00 0.00 11 1014.8
20260509233303 32 176 0.0 3.2 0.00 0.00 0.00 13 1010.6
20260509233044 32 218 0.0 0.0 0.00 0.00 0.00 12 1014.4
20260509232540 33 258 0.0 0.0 0.00 0.00 0.00 11 1014.7
20260509232037 33 255 0.0 0.0 0.00 0.00 0.00 12 1014.5
20260509231533 32 231 0.0 0.0 0.00 0.00 0.00 13 1014.7
20260509231032 32 214 0.0 0.0 0.00 0.00 0.00 13 1014.7
20260509230528 32 218 0.0 0.0 0.00 0.00 0.00 11 1014.8
20260509230304 32 332 0.0 14.5 0.00 0.00 0.00 11 1010.5
20260509230025 33 322 0.0 1.6 0.00 0.00 0.00 11 1014.8
20260509225804 33 264 0.0 14.5 0.00 0.00 0.00 12 1010.7
20260509225520 33 297 0.0 4.8 0.00 0.00 0.00 11 1014.8
20260509225306 33 266 1.6 16.1 0.00 0.00 0.00 11 1010.6
20260509225016 33 296 0.0 8.0 0.00 0.00 0.00 11 1014.9
20260509224804 33 248 0.0 16.1 0.00 0.00 0.00 11 1010.5
20260509224512 32 231 0.0 3.2 0.00 0.00 0.00 12 1014.9
20260509224304 33 330 1.6 16.1 0.00 0.00 0.00 11 1010.6
20260509224009 33 291 0.0 12.9 0.00 0.00 0.00 11 1014.8
20260509223804 33 283 1.6 8.0 0.00 0.00 0.00 11 1010.5
20260509223506 33 98 0.0 1.6 0.00 0.00 0.00 11 1014.6
20260509223304 33 148 0.0 16.1 0.00 0.00 0.00 11 1010.8
20260509223004 33 304 0.0 8.0 0.00 0.00 0.00 10 1014.9
20260509222459 33 155 0.0 4.8 0.00 0.00 0.00 12 1014.9
20260509222307 33 357 0.0 24.1 0.00 0.00 0.00 11 1010.9
20260509221955 33 275 1.6 17.7 0.00 0.00 0.00 11 1014.9
20260509221803 32 318 3.2 24.1 0.00 0.00 0.00 11 1010.8
20260509221451 33 358 4.8 20.9 0.00 0.00 0.00 11 1014.8
20260509221303 33 276 3.2 19.3 0.00 0.00 0.00 12 1010.8
20260509220947 33 303 0.0 9.7 0.00 0.00 0.00 13 1015.0
20260509220804 33 287 0.0 24.1 0.00 0.00 0.00 12 1010.8
20260509220443 33 342 1.6 3.2 0.00 0.00 0.00 12 1015.0
20260509220303 33 270 1.6 37.0 0.00 0.00 0.00 12 1010.8
20260509215939 33 291 1.6 4.8 0.00 0.00 0.00 12 1014.9
20260509215803 32 224 1.6 40.2 0.00 0.00 0.00 13 1010.7
20260509215435 32 265 1.6 12.9 0.00 0.00 0.00 13 1015.0
20260509215306 32 331 3.2 40.2 0.00 0.00 0.00 13 1010.9
20260509214933 33 74 8.0 40.2 0.00 0.00 0.00 13 1014.8
20260509214430 33 304 0.0 22.5 0.00 0.00 0.00 13 1014.9
20260509214304 33 259 0.0 25.7 0.00 0.00 0.00 13 1010.9
20260509213926 33 268 0.0 8.0 0.00 0.00 0.00 14 1015.1
20260509213804 32 202 0.0 51.5 0.00 0.00 0.00 13 1011.0
20260509213422 33 305 3.2 22.5 0.00 0.00 0.00 12 1015.4
20260509213304 33 268 3.2 51.5 0.00 0.00 0.00 14 1011.0
20260509212920 32 160 0.0 9.7 0.00 0.00 0.00 13 1015.2
20260509212804 33 289 3.2 51.5 0.00 0.00 0.00 13 1011.0
20260509212417 33 223 0.0 8.0 0.00 0.00 0.00 15 1015.2
20260509212306 33 305 0.0 29.0 0.00 0.00 0.00 14 1011.1
20260509211913 33 280 3.2 11.3 0.00 0.00 0.00 15 1015.6
20260509211803 33 236 0.0 32.2 0.00 0.00 0.00 14 1011.3
20260509211409 32 297 1.6 8.0 0.00 0.00 0.00 13 1015.6
20260509210906 33 192 8.0 27.4 0.00 0.00 0.00 13 1015.5
20260509210804 33 306 3.2 32.2 0.00 0.00 0.00 13 1011.4
20260509210403 33 192 0.0 4.8 0.00 0.00 0.00 16 1015.8
20260509205858 32 219 0.0 8.0 0.00 0.00 0.00 15 1015.8
20260509205804 32 290 3.2 29.0 0.00 0.00 0.00 14 1011.6
20260509205352 33 336 0.0 29.0 0.00 0.00 0.00 15 1015.8
20260509205307 33 266 4.8 29.0 0.00 0.00 0.00 14 1011.5
20260509204849 32 310 0.0 0.0 0.00 0.00 0.00 15 1015.8
20260509204804 32 236 0.0 27.4 0.00 0.00 0.00 14 1011.6
20260509204345 32 318 11.3 27.4 0.00 0.00 0.00 14 1015.9
20260509204304 32 300 4.8 25.7 0.00 0.00 0.00 15 1011.8
20260509203842 32 232 0.0 20.9 0.00 0.00 0.00 16 1015.9
20260509203804 32 276 4.8 22.5 0.00 0.00 0.00 17 1011.7
20260509203338 31 218 4.8 16.1 0.00 0.00 0.00 18 1016.3
20260509203303 31 285 0.0 35.4 0.00 0.00 0.00 19 1011.7
20260509202835 32 123 0.0 3.2 0.00 0.00 0.00 20 1016.4
20260509202803 32 260 3.2 35.4 0.00 0.00 0.00 18 1011.9
20260509202331 32 256 1.6 3.2 0.00 0.00 0.00 17 1015.9
20260509202306 32 313 1.6 24.1 0.00 0.00 0.00 17 1011.7
20260509201831 32 318 0.0 24.1 0.00 0.00 0.00 17 1016.3
20260509201803 32 285 1.6 14.5 0.00 0.00 0.00 18 1011.7
20260509201327 32 248 0.0 1.6 0.00 0.00 0.00 19 1016.3
20260509201304 32 258 0.0 20.9 0.00 0.00 0.00 19 1011.9
20260509200824 32 289 1.6 14.5 0.00 0.00 0.00 18 1016.4
20260509200803 32 320 3.2 20.9 0.00 0.00 0.00 18 1011.9
20260509200320 32 255 0.0 9.7 0.00 0.00 0.00 18 1016.4
20260509200304 32 322 1.6 19.3 0.00 0.00 0.00 18 1012.0
20260509195816 32 296 0.0 1.6 0.00 0.00 0.00 20 1016.3
20260509195804 32 310 0.0 27.4 0.00 0.00 0.00 20 1012.1
20260509195316 32 236 0.0 14.5 0.00 0.00 0.00 20 1016.6
20260509195306 32 289 1.6 27.4 0.00 0.00 0.00 19 1012.0
20260509194816 31 297 1.6 27.4 0.00 0.00 0.00 19 1016.3
20260509194313 31 240 0.0 0.0 0.00 0.00 0.00 20 1016.7
20260509194304 31 230 0.0 14.5 0.00 0.00 0.00 22 1012.3
20260509193809 31 6 4.8 14.5 0.00 0.00 0.00 20 1016.8
20260509193804 31 3 1.6 16.1 0.00 0.00 0.00 21 1012.4
20260509193309 31 343 0.0 4.8 0.00 0.00 0.00 20 1016.7
20260509193304 31 298 0.0 16.1 0.00 0.00 0.00 20 1012.3
20260509192806 31 239 1.6 12.9 0.00 0.00 0.00 21 1016.8
20260509192804 31 212 1.6 12.9 0.00 0.00 0.00 21 1012.5
20260509192305 31 238 0.0 12.9 0.00 0.00 0.00 22 1017.0
20260509191804 31 238 0.0 25.7 0.00 0.00 0.00 22 1012.6
20260509191756 31 230 0.0 11.3 0.00 0.00 0.00 22 1016.9
20260509191304 31 335 3.2 20.9 0.00 0.00 0.00 22 1012.7
20260509191253 31 311 3.2 17.7 0.00 0.00 0.00 22 1017.1
20260509190749 31 211 0.0 0.0 0.00 0.00 0.00 23 1017.3
20260509190304 31 225 4.8 33.8 0.00 0.00 0.00 21 1013.1
20260509190247 30 243 6.4 20.9 0.00 0.00 0.00 21 1017.6
20260509185804 30 309 4.8 20.9 0.00 0.00 0.00 22 1012.8
20260509185744 30 314 0.0 17.7 0.00 0.00 0.00 22 1017.3
20260509185306 30 275 0.0 32.2 0.00 0.00 0.00 22 1013.0
20260509185240 30 306 0.0 14.5 0.00 0.00 0.00 21 1017.5
20260509184805 30 228 0.0 32.2 0.00 0.00 0.00 22 1013.2
20260509184738 30 215 0.0 4.8 0.00 0.00 0.00 22 1017.7
20260509184304 30 299 3.2 32.2 0.00 0.00 0.00 23 1013.3
20260509184235 30 305 11.3 32.2 0.00 0.00 0.00 22 1017.8
20260509183804 30 242 0.0 38.6 0.00 0.00 0.00 23 1013.1
20260509183731 30 261 0.0 0.0 0.00 0.00 0.00 23 1017.4
20260509183304 30 197 1.6 38.6 0.00 0.00 0.00 22 1013.4
20260509183226 30 191 0.0 4.8 0.00 0.00 0.00 22 1017.8
20260509182804 30 275 1.6 25.7 0.00 0.00 0.00 23 1013.5
20260509182722 30 281 0.0 11.3 0.00 0.00 0.00 23 1018.0
20260509182306 30 235 1.6 29.0 0.00 0.00 0.00 23 1013.4
20260509182220 30 269 0.0 11.3 0.00 0.00 0.00 23 1017.8
20260509181804 30 108 0.0 29.0 0.00 0.00 0.00 22 1013.6
20260509181717 30 105 0.0 4.8 0.00 0.00 0.00 23 1018.2
20260509181304 30 233 6.4 29.0 0.00 0.00 0.00 23 1013.6
20260509181214 30 215 1.6 29.0 0.00 0.00 0.00 23 1018.2
20260509180804 30 133 1.6 24.1 0.00 0.00 0.00 23 1013.7
20260509180711 30 139 0.0 9.7 0.00 0.00 0.00 23 1018.2
20260509180207 29 240 0.0 16.1 0.00 0.00 0.00 24 1018.3
20260509175804 29 198 1.6 24.1 0.00 0.00 0.00 24 1014.2
20260509175704 29 253 1.6 24.1 0.00 0.00 0.00 23 1018.5
20260509175306 29 183 0.0 16.1 0.00 0.00 0.00 25 1013.9
20260509175201 29 155 0.0 0.0 0.00 0.00 0.00 25 1018.4
20260509174804 29 232 1.6 22.5 0.00 0.00 0.00 24 1013.8
20260509174656 30 231 1.6 9.7 0.00 0.00 0.00 24 1018.5
20260509174304 28 204 0.0 22.5 0.00 0.00 0.00 25 1013.9
20260509174157 28 211 0.0 16.1 0.00 0.00 0.00 26 1018.4
20260509173804 29 183 4.8 22.5 0.00 0.00 0.00 24 1014.1
20260509173653 29 258 3.2 16.1 0.00 0.00 0.00 24 1018.8
20260509173304 28 241 0.0 20.9 0.00 0.00 0.00 26 1014.0
20260509173149 28 235 0.0 9.7 0.00 0.00 0.00 25 1018.8
20260509172645 28 215 3.2 20.9 0.00 0.00 0.00 26 1018.6
20260509172306 28 203 1.6 29.0 0.00 0.00 0.00 27 1014.3
20260509172142 28 212 0.0 16.1 0.00 0.00 0.00 26 1018.9
20260509171804 27 176 1.6 35.4 0.00 0.00 0.00 30 1014.2
20260509171637 27 106 0.0 9.7 0.00 0.00 0.00 31 1018.7
20260509171304 27 110 4.8 35.4 0.00 0.00 0.00 31 1014.3
20260509171134 27 80 6.4 29.0 0.00 0.00 0.00 31 1018.9
20260509170631 27 145 3.2 14.5 0.00 0.00 0.00 30 1019.2
20260509170304 27 183 1.6 25.7 0.00 0.00 0.00 32 1014.5
20260509170127 27 115 0.0 14.5 0.00 0.00 0.00 31 1019.2
20260509165803 27 210 3.2 33.8 0.00 0.00 0.00 31 1014.7
20260509165625 27 195 6.4 20.9 0.00 0.00 0.00 31 1019.3
20260509165306 27 231 1.6 33.8 0.00 0.00 0.00 31 1014.6
20260509165121 27 134 0.0 24.1 0.00 0.00 0.00 31 1019.2
20260509164804 27 321 4.8 33.8 0.00 0.00 0.00 31 1014.6
20260509164617 27 188 0.0 14.5 0.00 0.00 0.00 32 1019.5
20260509164303 26 194 3.2 37.0 0.00 0.00 0.00 33 1014.8
20260509164113 26 144 1.6 4.8 0.00 0.00 0.00 34 1019.4
20260509163804 26 145 3.2 37.0 0.00 0.00 0.00 33 1014.5
20260509163611 26 152 3.2 16.1 0.00 0.00 0.00 34 1019.2
20260509163303 26 139 8.0 35.4 0.00 0.00 0.00 32 1014.9
20260509163106 26 182 0.0 16.1 0.00 0.00 0.00 34 1019.5
20260509162804 26 209 3.2 27.4 0.00 0.00 0.00 33 1014.8
20260509162604 26 154 0.0 22.5 0.00 0.00 0.00 33 1019.8
20260509162306 26 221 1.6 14.5 0.00 0.00 0.00 33 1014.9
20260509162100 26 217 1.6 11.3 0.00 0.00 0.00 32 1019.5
20260509161803 26 161 0.0 33.8 0.00 0.00 0.00 34 1015.0
20260509161557 25 345 1.6 12.9 0.00 0.00 0.00 34 1019.7
20260509161303 25 215 1.6 33.8 0.00 0.00 0.00 34 1015.1
20260509161056 25 170 0.0 14.5 0.00 0.00 0.00 36 1019.7
20260509160804 25 199 4.8 33.8 0.00 0.00 0.00 35 1015.2
20260509160553 25 147 8.0 27.4 0.00 0.00 0.00 35 1019.8
20260509160304 25 236 6.4 19.3 0.00 0.00 0.00 35 1015.2
20260509160048 25 120 1.6 16.1 0.00 0.00 0.00 35 1019.8
20260509155804 25 225 1.6 19.3 0.00 0.00 0.00 37 1015.2
20260509155544 25 223 1.6 12.9 0.00 0.00 0.00 38 1019.7
20260509155041 25 157 4.8 11.3 0.00 0.00 0.00 37 1019.8
20260509154803 25 130 1.6 16.1 0.00 0.00 0.00 36 1015.3
20260509154537 25 227 1.6 16.1 0.00 0.00 0.00 36 1020.1
20260509154303 25 217 0.0 11.3 0.00 0.00 0.00 37 1015.2
20260509154035 25 189 0.0 0.0 0.00 0.00 0.00 38 1020.1
20260509153803 25 248 0.0 12.9 0.00 0.00 0.00 37 1015.3
20260509153532 25 193 0.0 8.0 0.00 0.00 0.00 37 1020.1
20260509153304 24 93 0.0 12.9 0.00 0.00 0.00 40 1015.5
20260509153028 24 207 0.0 12.9 0.00 0.00 0.00 39 1020.2
20260509152524 23 197 0.0 0.0 0.00 0.00 0.00 42 1020.3
20260509152306 23 166 0.0 11.3 0.00 0.00 0.00 42 1015.6
20260509152021 23 191 0.0 0.0 0.00 0.00 0.00 41 1020.3
20260509151803 23 224 1.6 11.3 0.00 0.00 0.00 41 1015.6
20260509151518 23 227 0.0 0.0 0.00 0.00 0.00 43 1020.1
20260509151304 23 135 0.0 3.2 0.00 0.00 0.00 43 1015.4
20260509151016 23 123 0.0 0.0 0.00 0.00 0.00 43 1020.2
20260509150804 23 201 0.0 12.9 0.00 0.00 0.00 42 1015.6
20260509150513 23 172 0.0 3.2 0.00 0.00 0.00 43 1020.4
20260509150303 22 185 0.0 12.9 0.00 0.00 0.00 44 1015.6
20260509150011 22 109 0.0 0.0 0.00 0.00 0.00 43 1020.3
20260509145507 22 198 0.0 1.6 0.00 0.00 0.00 44 1020.4
20260509145306 22 200 0.0 8.0 0.00 0.00 0.00 45 1015.5
20260509145002 22 218 0.0 0.0 0.00 0.00 0.00 45 1020.5
20260509144804 22 183 0.0 8.0 0.00 0.00 0.00 46 1015.6
20260509144459 22 160 0.0 8.0 0.00 0.00 0.00 46 1020.4
20260509144303 21 121 0.0 0.0 0.00 0.00 0.00 48 1015.7
20260509143956 21 191 0.0 0.0 0.00 0.00 0.00 48 1020.5
20260509143803 21 172 0.0 0.0 0.00 0.00 0.00 49 1015.6
20260509143453 21 213 0.0 0.0 0.00 0.00 0.00 51 1020.4
20260509143304 21 145 0.0 0.0 0.00 0.00 0.00 51 1015.6
20260509142950 21 182 0.0 0.0 0.00 0.00 0.00 52 1020.5
20260509142803 21 137 0.0 0.0 0.00 0.00 0.00 54 1015.8
20260509142446 21 166 0.0 0.0 0.00 0.00 0.00 53 1020.5
20260509142306 21 197 0.0 0.0 0.00 0.00 0.00 53 1015.7
20260509141941 21 197 0.0 0.0 0.00 0.00 0.00 54 1020.6
20260509141804 21 144 0.0 0.0 0.00 0.00 0.00 54 1015.7
20260509141438 21 137 0.0 0.0 0.00 0.00 0.00 55 1020.5
20260509140935 20 190 0.0 0.0 0.00 0.00 0.00 56 1020.8
20260509140804 20 218 0.0 0.0 0.00 0.00 0.00 56 1015.8
20260509140431 20 183 0.0 0.0 0.00 0.00 0.00 57 1020.6
20260509140304 20 185 0.0 0.0 0.00 0.00 0.00 56 1015.9
20260509135930 20 183 0.0 0.0 0.00 0.00 0.00 57 1020.7
20260509135804 20 163 0.0 0.0 0.00 0.00 0.00 56 1015.8
20260509135427 20 181 0.0 0.0 0.00 0.00 0.00 56 1020.8
20260509135306 20 159 0.0 0.0 0.00 0.00 0.00 55 1015.9
20260509134924 20 189 0.0 0.0 0.00 0.00 0.00 57 1020.6
20260509134804 19 181 0.0 0.0 0.00 0.00 0.00 57 1015.8
20260509134421 18 201 0.0 0.0 0.00 0.00 0.00 57 1020.5
20260509134304 18 195 0.0 0.0 0.00 0.00 0.00 57 1015.6
20260509133919 18 234 0.0 0.0 0.00 0.00 0.00 57 1020.3
20260509133803 18 196 0.0 0.0 0.00 0.00 0.00 57 1015.7
20260509133415 18 206 0.0 0.0 0.00 0.00 0.00 57 1020.5
20260509133303 18 189 0.0 0.0 0.00 0.00 0.00 57 1015.9
20260509132914 17 106 0.0 0.0 0.00 0.00 0.00 57 1020.7
20260509132803 17 211 0.0 0.0 0.00 0.00 0.00 56 1015.9
20260509132412 17 200 0.0 0.0 0.00 0.00 0.00 56 1020.7
20260509132306 18 134 0.0 0.0 0.00 0.00 0.00 55 1015.9
20260509131908 17 188 0.0 0.0 0.00 0.00 0.00 56 1020.6
20260509131804 17 182 0.0 0.0 0.00 0.00 0.00 55 1015.8
20260509131405 16 194 0.0 0.0 0.00 0.00 0.00 56 1020.5